Regional Weather Roundup
Issued by NWS

Home | Current Version | Previous Version | Text Only | Print | Product List | Glossary On
Versions: 1 2 3 4 5 6 7 8 9 10 11 12 13 14 15 16 17 18 19 20 21 22 23 24 25 26 27 28 29 30 31 32 33 34 35 36 37 38 39 40 41 42 43 44 45 46 47 48 49 50
000
ASUS44 KMEG 260300
RWRTN
TENNESSEE HOURLY STATE WEATHER ROUNDUP
NATIONAL WEATHER SERVICE MEMPHIS TN
1000 PM CDT WED MAY 25 2016

TNZ002-004-019-021-049-052-054-088>092-260400-
WEST TENNESSEE

CITY           SKY/WX    TMP DP  RH WIND       PRES   REMARKS
MEMPHIS INTL   CLOUDY    74  66  76 SE9       30.07S
NWS MEMPHIS      N/A     69 N/A N/A MISG        N/A
JACKSON        CLEAR     66  62  87 S6        30.08F
DYERSBURG      PTCLDY    66  63  88 S8        30.07S
UNION CITY     PTCLDY    66  66 100 S8        30.06S
PARIS          CLEAR     64  63  94 SW7       30.09R
LEXINGTON      PTCLDY    64  64 100 S5        30.10R
$$

TNZ008-025-027-028-033-062-065-066-260400-
NORTH MIDDLE TENNESSEE

CITY           SKY/WX    TMP DP  RH WIND       PRES   REMARKS
NASHVILLE      MOCLDY    67  64  90 CALM      30.11R
CLARKSVILLE    PTCLDY    63  62  97 SE6       30.08S
COOKEVILLE     PTCLDY    66  66 100 E8        30.12F
CROSSVILLE     LGT RAIN  70  60  70 W9G20     30.21R
$$

TNZ061-075-076-078-094-096-097-260400-
SOUTH MIDDLE TENNESSEE

CITY           SKY/WX    TMP DP  RH WIND       PRES   REMARKS
TULLAHOMA      CLEAR     72  57  60 SE7       30.11F
WINCHESTER     CLEAR     70  61  73 SE6       30.15F
MCMINNVILLE    PTCLDY    68  68 100 CALM      30.11F
COLUMBIA       PTCLDY    72  68  88 CALM      30.09S
SHELBYVILLE    PTCLDY    75  61  60 S8        30.11R
$$

TNZ017-018-042-046-047-260400-
NORTHEAST TENNESSEE

CITY           SKY/WX    TMP DP  RH WIND       PRES   REMARKS
TRI CITIES     CLOUDY    67  65  93 CALM      30.21R
$$

TNZ012-013-036-069-073-074-260400-
CENTRAL EAST TENNESSEE

CITY           SKY/WX    TMP DP  RH WIND       PRES   REMARKS
KNOXVILLE      MOCLDY    72  62  71 S3        30.16S
OAK RIDGE      CLEAR     69  61  75 CALM      30.17S
GATLINBURG     PTCLDY    66  61  82 CALM      30.17F
$$

TNZ083-085-099-260400-
SOUTHEAST TENNESSEE

CITY           SKY/WX    TMP DP  RH WIND       PRES   REMARKS
CHATTANOOGA    MOCLDY    77  57  50 S5        30.15F
$$

SKY/WX REPORTED AS FAIR MEANS FEW OR NO CLOUDS BELOW
12 THOUSAND FEET.





USA.gov is the U.S. government's official web portal to all federal, state and local government web resources and services.